CAPE
0 0 0 0 0 0 0 0 0 0 0 0 0 0 0 0 0 0 5 0 0 0 0 3 2 0 10 4 8 32 32 9 7 11 9 10 6 1 0 0 0 7 4
0 0 0 0 0 0 0 0 0 0 0 0 0 0 0 0 0 0 5 0 0 0 0 2 5 0 1 7 10 0 9 25 13 2 7 7 6 4 4 1 0 0 0
0 0 0 0 0 0 0 0 0 0 0 0 0 0 0 0 0 0 4 0 0 0 0 0 2 5 4 13 8 8 8 6 30 2 8 6 0 5 4 4 2 0 0
0 0 0 0 0 0 0 0 0 0 0 0 0 0 0 0 0 4 1 0 0 0 0 0 0 0 7 21 11 11 4 0 14 25 25 15 16 15 9 1 0 0 0
0 0 0 0 0 0 0 0 0 0 0 0 0 0 0 0 0 9 4 3 0 0 0 0 0 0 19 22 11 5 4 3 3 3 4 9 1 1 2 1 1 3 3
0 0 0 0 0 0 0 0 0 0 0 0 0 0 0 0 0 2 12 4 1 0 0 0 0 0 12 11 10 6 3 3 7 0 0 1 4 1 0 0 0 0 2
0 0 0 0 0 0 0 0 0 0 0 0 0 0 0 0 0 0 4 2 0 0 0 0 0 1 3 7 0 0 1 3 5 10 0 2 2 0 0 0 0 0 0
0 0 0 0 0 0 0 0 0 0 0 0 0 0 0 0 0 0 1 0 0 0 0 0 0 2 1 5 9 0 0 1 2 3 3 6 11 0 0 2 0 0 0
0 0 0 0 0 0 0 0 0 0 0 0 0 0 0 0 0 0 0 0 0 0 0 0 0 3 2 4 7 4 2 5 0 0 1 2 2 2 4 5 1 4 1
0 0 0 0 0 0 0 0 0 0 0 0 0 0 0 0 0 0 0 0 0 0 0 0 0 2 5 7 4 5 0 0 2 0 0 0 3 0 0 2 3 1 0
0 0 0 0 0 0 0 0 0 0 0 0 0 0 0 0 0 0 0 0 0 0 0 0 0 0 0 0 0 5 3 2 0 0 1 1 0 0 0 1 1 1 0
0 0 0 0 0 0 0 0 0 0 0 0 0 0 0 0 0 0 0 0 0 0 0 0 0 0 0 0 0 0 0 0 0 0 0 0 1 1 3 3 2 1 0
0 0 0 0 0 0 0 0 0 0 0 0 0 0 0 0 0 0 0 0 0 0 0 0 0 0 0 0 0 0 0 0 0 0 0 0 0 0 0 1 1 0 2
0 0 0 0 0 0 0 0 0 0 0 0 0 0 0 0 0 0 1 2 0 0 0 0 0 0 0 0 0 0 0 0 0 0 0 0 0 0 0 0 1 0 0
0 0 0 0 0 0 0 0 0 0 0 0 0 0 0 0 0 0 2 0 0 0 0 0 0 0 0 0 0 0 0 0 0 0 0 0 0 0 0 0 0 0 0
0 0 0 0 0 0 0 0 0 0 0 0 0 0 0 0 0 0 0 0 0 0 0 0 0 0 0 0 0 0 0 0 0 0 0 0 0 0 0 0 0 0 0
0 0 0 0 0 0 0 0 0 0 0 0 0 0 0 0 0 0 0 0 0 0 0 0 0 0 0 0 0 0 0 0 0 0 0 0 0 0 0 0 0 0 0
0 0 0 0 0 0 0 0 0 0 0 0 0 0 0 0 0 0 0 0 0 0 0 0 0 0 0 0 0 0 0 0 0 0 0 0 0 0 0 0 0 0 0
0 0 0 0 0 0 0 0 0 0 0 0 0 0 0 0 0 0 0 0 0 0 0 0 0 0 0 0 0 0 0 0 0 0 0 0 0 0 0 0 0 0 0
0 0 0 0 0 0 0 0 0 0 0 0 0 0 0 0 0 0 0 0 0 0 0 0 0 0 0 0 0 0 0 0 0 0 0 0 0 0 0 0 0 0 0
0 0 0 0 0 0 0 0 0 0 0 0 0 0 0 0 0 0 0 0 0 0 0 1 1 0 0 0 0 0 0 0 0 0 0 0 0 0 0 0 0 0 0
0 0 0 0 0 0 0 0 0 0 0 0 0 0 0 0 0 1 0 0 1 0 0 1 1 0 0 0 1 0 0 0 0 0 0 0 0 0 0 0 0 0 0
0 0 0 0 0 0 0 0 0 0 0 0 0 0 0 0 0 0 0 1 0 0 1 1 2 1 2 2 3 2 0 0 0 0 0 0 0 0 0 0 0 0 0
0 0 0 0 0 0 0 0 0 0 0 0 0 0 0 0 0 0 1 1 0 0 0 0 1 0 0 0 0 1 1 0 2 0 0 0 0 0 0 0 0 0 0
0 0 0 0 0 0 0 0 0 0 0 0 0 0 0 0 0 0 1 0 1 1 1 1 2 1 0 0 0 0 0 0 2 0 0 0 0 0 0 0 0 0 0
0 0 0 0 0 0 0 0 0 0 0 0 0 0 0 0 0 1 0 0 0 0 0 0 0 0 0 0 0 0 0 0 0 0 0 0 0 0 0 0 0 0 0
CIN
0 0 0 0 0 0 0 0 0 0 0 0 0 0 0 0 0 -1 -1 0 0 0 0 -1 -2 -1 -2 0 -1 0 -1 -1 0 -1 -1 0 0 0 0 0 0 0 -1
0 0 0 0 0 0 0 0 0 0 0 0 0 0 0 0 0 -1 -1 -1 0 0 0 -1 -1 0 -2 -1 -3 0 -3 -1 0 -3 -1 -1 0 0 0 0 0 0 0
0 0 0 0 0 0 0 0 0 0 0 0 0 0 0 0 0 -2 -1 0 0 0 0 0 -1 -1 -1 -1 -1 -1 -1 0 0 -2 -1 -4 -5 -1 0 0 0 0 0
0 0 0 0 0 0 0 0 0 0 0 0 0 0 0 0 0 -6 -1 0 0 0 0 0 0 -1 -1 -1 -1 -2 -1 0 -1 0 0 0 -1 -1 -1 0 0 0 0
0 0 0 0 0 0 0 0 0 0 0 0 0 0 0 0 0 0 -1 -1 0 0 0 0 0 0 0 0 -1 0 -1 -3 0 -1 -3 -3 0 -2 -1 0 0 0 0
0 0 0 0 0 0 0 0 0 0 0 0 0 0 0 0 0 0 -1 -1 0 0 0 0 0 0 0 -3 -1 0 0 -2 0 -3 0 -1 0 0 0 0 0 0 0
0 0 0 0 0 0 0 0 0 0 0 0 0 0 0 0 0 0 0 -1 -1 0 0 0 0 0 -2 -5 -8 -1 -1 0 0 -1 0 -1 -4 -15 0 0 0 0 0
0 0 0 0 0 0 0 0 0 0 0 0 0 0 0 0 0 0 0 -1 0 0 0 0 0 -1 -1 -3 -3 -2 0 -1 -1 0 0 0 -1 0 0 0 0 0 0
0 0 0 0 0 0 0 0 0 0 0 0 0 0 0 0 0 0 0 0 0 0 0 0 0 0 -1 -3 -1 -1 -1 -1 -1 0 0 0 0 0 -1 0 -1 0 0
0 0 0 0 0 0 0 0 0 0 0 0 0 0 0 0 0 0 0 0 0 0 0 0 0 0 0 0 0 0 0 0 0 0 0 0 0 -1 0 -1 0 0 0
0 0 0 0 0 0 0 0 0 0 0 0 0 0 0 0 0 0 0 0 0 0 0 0 0 0 0 0 0 -1 -1 0 0 0 0 -1 0 -1 0 0 0 0 0
0 0 0 0 0 0 0 0 0 0 0 0 0 0 0 0 0 0 0 0 0 0 0 0 0 0 0 0 0 0 0 0 0 0 0 0 0 -1 0 -1 0 0 0
0 0 0 0 0 0 0 0 0 0 0 0 0 0 0 0 0 0 0 0 0 0 0 0 0 0 0 0 0 0 0 0 0 0 0 0 0 0 0 -1 -1 0 0
0 0 0 0 0 0 0 0 0 0 0 0 0 0 0 0 0 0 -1 -1 0 0 0 0 0 0 0 0 0 0 0 0 0 0 0 0 0 0 0 0 0 -1 -1
0 0 0 0 0 0 0 0 0 0 0 0 0 0 0 0 0 -1 0 0 0 0 0 0 0 0 0 0 0 0 0 0 0 0 0 0 0 0 0 0 0 0 0
0 0 0 0 0 0 0 0 0 0 0 0 0 0 0 0 0 0 0 0 0 0 0 0 0 0 0 0 0 0 0 0 0 0 0 0 0 0 0 0 0 0 0
0 0 0 0 0 0 0 0 0 0 0 0 0 0 0 0 0 0 0 0 0 0 0 0 0 0 0 0 0 0 0 0 0 0 0 0 0 0 0 0 0 0 0
0 0 0 0 0 0 0 0 0 0 0 0 0 0 0 0 0 0 0 0 0 0 0 0 0 0 0 0 0 0 0 0 0 0 0 0 0 0 0 0 0 0 0
0 0 0 0 0 0 0 0 0 0 0 0 0 0 0 0 0 0 0 0 0 0 0 0 0 0 0 0 0 0 0 0 0 0 0 0 0 0 0 0 0 0 0
0 0 0 0 0 0 0 0 0 0 0 0 0 0 0 0 0 0 0 0 0 0 0 0 0 0 0 0 0 0 0 0 0 0 0 0 0 0 0 0 0 0 0
0 0 0 0 0 0 0 0 0 0 0 0 0 0 -1 0 0 0 0 0 0 0 0 0 0 0 0 0 0 0 0 0 0 0 0 0 0 0 0 0 0 0 0
0 0 0 0 0 0 0 0 0 0 0 0 0 0 0 0 0 0 0 0 0 0 0 0 0 0 0 0 0 0 0 0 0 0 0 0 0 0 0 0 0 0 0
0 0 0 0 0 0 0 0 0 0 0 0 0 0 0 0 -1 0 0 0 0 0 0 0 0 0 0 0 0 0 0 0 0 0 0 0 0 0 0 0 0 0 0
0 0 0 0 0 0 0 0 0 0 0 0 0 0 0 0 -1 -1 0 0 0 0 0 0 0 0 0 0 0 0 0 0 0 0 0 0 0 0 0 0 0 0 0
0 0 0 0 0 0 0 0 0 0 0 0 0 0 0 0 0 0 0 0 0 0 0 0 0 0 0 0 0 0 0 0 0 0 0 0 0 0 0 0 0 0 0
0 0 0 0 0 0 0 0 0 0 0 0 0 0 0 0 0 0 0 0 0 0 0 0 0 0 0 0 0 0 0 0 0 0 0 0 0 0 0 0 0 0 0
Wind_Speed
10 10 10 10 10 11 11 12 14 14 14 15 15 15 15 17 19 18 22 22 23 24 20 20 18 16 17 17 16 6 7 7 21 21 19 19 19 19 20 19 19 19 18
10 10 10 10 10 10 11 12 13 14 15 15 16 16 16 16 19 19 20 22 23 23 24 22 22 19 19 17 16 25 22 15 9 21 21 20 19 19 19 20 20 20 21
10 9 9 10 10 11 12 13 13 14 15 16 16 17 18 17 17 19 20 22 22 22 23 23 21 21 16 19 17 11 17 21 19 19 20 19 20 19 20 19 19 21 22
9 9 9 9 10 11 11 13 13 14 15 16 17 18 18 18 17 20 20 23 23 21 21 21 20 20 18 18 18 2 10 16 21 19 19 20 19 19 20 22 23 23 25
8 8 8 9 9 10 11 12 13 15 15 16 16 18 19 19 19 21 20 22 22 22 20 20 20 17 19 21 19 12 8 18 12 14 21 20 20 20 21 21 22 24 24
7 7 7 8 9 10 11 12 13 14 15 16 17 18 19 19 19 19 23 22 23 22 21 20 19 17 20 20 19 19 17 17 10 15 18 20 22 22 21 22 22 23 23
6 6 6 7 8 10 11 12 13 14 15 16 17 17 18 19 19 20 20 21 23 23 21 20 20 18 17 18 17 18 15 12 8 10 9 11 19 21 22 22 21 21 23
5 4 5 6 7 9 10 11 12 13 15 15 16 16 17 18 19 20 20 20 21 23 22 20 19 17 16 15 13 11 14 11 7 7 7 11 10 14 13 20 21 23 24
3 3 4 5 6 8 9 10 11 12 13 14 14 15 16 17 18 19 20 20 21 22 23 21 19 16 11 18 6 6 9 10 12 11 10 9 9 10 11 13 20 21 22
3 2 3 4 6 7 8 9 9 10 12 13 13 13 14 15 17 18 19 20 22 23 23 21 19 13 2 12 8 7 5 10 10 10 12 12 11 11 11 12 12 14 19
3 2 2 3 5 6 7 8 9 10 11 12 12 13 14 15 16 17 18 20 21 21 23 21 17 9 5 12 11 10 9 6 8 11 12 15 15 14 14 13 12 13 12
5 3 2 2 4 6 6 7 9 10 10 12 13 14 14 16 16 16 17 19 20 19 21 18 13 7 5 12 12 13 12 8 8 9 10 12 13 14 13 12 12 11 10
5 4 3 2 2 3 5 6 8 9 10 11 13 14 14 16 15 15 16 18 18 18 19 18 13 8 7 10 12 13 13 11 8 8 8 9 9 8 8 11 10 9 7
5 4 3 3 1 2 3 5 7 9 10 10 12 13 13 15 16 16 15 17 17 17 18 17 14 11 10 10 12 12 13 14 9 7 7 7 7 7 8 9 6 5 6
4 4 3 2 1 1 2 3 6 7 8 9 11 11 12 13 15 13 14 16 16 17 17 16 15 13 13 12 11 10 11 14 14 14 9 10 10 10 9 9 5 4 3
3 3 2 2 1 1 2 4 4 4 6 6 6 7 9 10 12 13 13 15 16 17 17 17 16 13 13 13 13 13 12 8 4 21 19 14 13 13 7 10 15 11 8
4 2 1 1 1 1 3 4 7 9 8 8 9 10 10 11 13 15 15 15 17 16 18 18 17 15 13 12 12 13 14 18 17 18 19 20 17 15 17 15 14 16 18
4 2 1 1 1 2 3 4 6 8 9 10 11 11 13 13 14 16 17 16 17 18 19 18 18 16 14 13 11 11 14 16 18 20 21 22 22 22 17 17 15 13 14
4 3 2 2 2 2 4 5 6 7 7 9 11 11 12 14 14 15 16 18 18 18 18 18 17 16 14 13 12 10 10 12 17 19 20 22 23 24 23 19 14 13 11
4 3 3 3 4 3 4 5 6 6 7 8 10 11 11 13 14 15 16 17 18 17 17 17 17 16 15 13 12 11 9 9 10 16 20 22 24 24 25 24 20 17 16
4 3 3 3 4 4 4 5 5 6 7 8 9 11 12 12 14 14 15 17 17 16 16 16 17 16 15 14 13 12 11 10 10 9 13 21 24 25 26 26 25 23 20
5 4 3 3 3 5 5 6 6 6 7 8 9 11 11 11 13 14 14 15 16 15 15 15 16 16 15 14 13 13 12 11 9 9 7 11 20 24 25 26 27 27 27
6 5 4 3 3 4 6 6 6 5 7 8 9 10 11 11 12 13 13 15 15 15 15 14 15 15 15 14 14 13 12 11 9 8 7 7 10 19 25 26 27 27 28
8 7 5 4 3 4 5 6 6 5 7 8 9 9 10 11 11 12 13 14 15 15 15 14 14 14 14 14 14 13 12 11 9 9 7 7 8 10 18 25 26 27 27
9 8 7 6 4 3 4 5 6 6 6 7 8 9 10 11 11 12 13 14 15 15 15 14 14 14 14 13 13 12 12 11 11 10 10 9 8 9 10 17 25 25 26
11 10 9 7 5 4 4 5 5 5 5 6 7 9 9 10 11 12 13 13 14 15 15 14 13 13 12 12 12 12 12 12 12 12 12 12 12 12 11 10 15 24 24
Wind_Direction
124 112 100 88 80 72 66 57 51 48 46 43 42 40 41 39 39 39 37 37 37 37 43 43 47 52 53 51 36 174 131 14 297 288 295 294 294 288 285 282 277 278 281
118 107 95 84 79 71 62 56 51 46 45 43 42 40 40 40 38 39 37 36 37 39 39 42 44 48 48 50 51 339 315 242 304 302 294 289 291 290 285 279 279 282 281
118 105 92 82 75 64 58 52 49 46 44 42 41 39 38 39 39 38 37 34 36 37 38 39 42 44 50 48 50 70 316 306 272 269 300 300 286 289 284 283 284 284 282
118 107 92 80 70 61 55 50 47 45 43 42 40 38 38 38 40 36 36 34 34 36 38 39 42 43 44 50 52 130 74 279 296 277 276 292 301 295 287 284 279 285 282
115 105 92 75 66 59 52 49 44 43 43 41 40 38 38 38 39 34 32 31 31 32 35 36 40 47 45 46 52 67 259 33 249 263 303 294 297 301 294 289 285 282 284
115 103 83 71 61 55 50 47 44 43 42 40 39 37 35 37 35 31 28 29 28 31 31 35 37 48 44 49 55 59 71 303 239 257 276 271 301 295 294 293 288 286 282
116 97 82 66 55 49 46 45 41 40 40 37 37 36 34 33 31 28 27 28 28 29 31 32 35 43 48 52 59 64 75 90 115 226 188 203 273 302 295 288 294 290 283
118 98 78 63 51 43 41 40 39 37 35 34 32 32 31 31 28 26 26 27 27 27 29 32 35 41 49 58 71 80 77 95 121 138 203 219 181 232 265 291 293 288 284
132 105 75 57 45 38 35 34 34 32 30 30 28 27 27 26 26 25 25 25 25 26 27 33 38 46 61 39 124 118 98 99 97 106 122 137 156 178 154 217 288 298 300
152 107 65 49 37 30 28 28 29 27 24 25 23 24 24 23 24 24 25 24 23 24 26 33 41 53 190 270 234 199 188 104 108 111 107 111 124 138 147 162 179 226 324
148 110 63 43 30 25 24 24 24 23 20 20 20 23 24 26 24 24 25 25 24 22 26 32 44 64 227 266 252 231 241 159 130 115 109 97 101 110 115 121 132 117 110
158 151 131 68 36 28 24 23 21 20 18 18 20 22 27 27 27 27 25 26 25 25 28 36 50 77 213 262 267 267 258 198 152 131 117 104 102 97 101 109 112 119 123
165 167 161 135 71 36 24 20 20 20 18 18 20 22 24 27 28 28 28 27 27 28 34 37 53 89 169 229 262 271 272 251 214 165 132 119 114 123 126 100 99 108 114
176 173 166 170 138 48 29 23 19 19 18 19 21 22 24 26 29 32 30 30 32 35 39 44 55 80 126 203 247 258 269 277 232 202 167 135 144 143 117 100 138 151 201
182 177 177 174 168 46 22 17 18 22 23 19 22 25 24 26 30 30 30 32 34 37 40 52 62 79 91 127 164 190 241 270 275 282 116 100 95 95 96 94 133 188 181
200 191 183 173 145 51 13 11 20 13 17 22 23 23 29 32 31 35 37 37 41 42 49 54 62 77 94 95 89 86 80 145 153 17 38 67 74 67 105 76 51 60 65
213 222 188 173 105 45 22 16 15 32 35 33 37 36 37 39 40 40 41 43 46 50 53 56 61 74 91 106 98 67 57 39 40 38 29 29 49 56 46 52 53 44 35
232 233 270 0 38 40 33 27 25 24 29 34 41 42 43 43 46 44 43 49 52 55 57 59 63 71 84 95 107 95 49 41 32 17 6 6 10 18 42 44 46 49 44
254 270 269 336 9 31 33 35 35 32 33 36 38 47 49 44 48 50 50 50 53 56 59 61 65 70 80 91 100 110 101 63 29 23 13 3 359 359 9 29 49 49 51
252 261 294 332 356 12 26 33 38 39 37 42 41 44 51 47 48 50 52 52 54 61 63 63 67 72 78 84 92 96 110 98 78 36 12 359 354 353 357 7 24 37 41
272 276 249 313 334 355 13 26 40 44 41 46 46 47 47 49 47 52 53 54 56 63 67 68 68 71 76 81 87 90 91 92 82 76 43 9 354 348 348 351 360 13 29
277 279 271 282 325 341 357 13 30 47 47 46 52 48 48 53 50 52 58 59 60 66 71 72 71 70 74 77 81 82 84 80 84 75 74 48 11 356 350 346 345 347 357
274 281 282 283 307 333 345 356 14 40 51 47 48 51 49 56 58 59 63 63 63 67 74 76 75 71 72 74 77 80 79 75 77 79 65 60 49 15 353 347 341 340 341
268 274 278 283 293 315 332 346 360 28 43 47 43 50 56 61 63 65 66 65 61 66 70 75 78 76 74 73 75 77 78 74 72 71 70 68 62 53 19 348 346 339 342
265 269 273 277 285 292 319 332 345 4 30 42 46 50 64 64 66 66 66 64 63 63 68 74 77 79 78 76 75 73 73 72 69 66 70 71 71 65 64 26 338 341 340
267 269 274 278 277 284 302 315 328 345 8 33 53 55 65 67 64 66 63 65 64 60 61 71 79 81 82 79 77 73 71 71 70 68 70 71 71 69 72 74 40 340 340